Weather History for Huntsville, AL

Change the Weather History Date:

Tuesday, March 26, 2013

  Actual Average Record
Temperature  
Mean Temperature 38 °F 56 °F  
Max Temperature 43 °F 68 °F 88 °F (2007)
Min Temperature 32 °F 44 °F 20 °F (1955)
Degree Days  
Heating Degree Days 27 9  
Month to date heating degree days 472 325  
Since 1 July heating degree days 2744 2777  
Cooling Degree Days 0 1  
Month to date cooling degree days 0 4  
Year to date cooling degree days 6 5  
Moisture  
Dew Point 27 °F    
Average Humidity 67    
Maximum Humidity 78    
Minimum Humidity 55    
Precipitation  
Precipitation T in 0.18 in 2.09 in (2011)
Month to date precipitation 4.69 4.36  
Year to date precipitation 16.57 14.09  
Snow  
Snow T in - - ()
Month to date snowfall T  
Since 1 July snowfall 0.7  
Snow Depth 0.00 in    
Sea Level Pressure  
Sea Level Pressure 30.26 in    
Wind  
Wind Speed 9 mph (NW)    
Max Wind Speed 17 mph    
Max Gust Speed 23 mph    
Visibility 10 miles    
Events Snow    
T = Trace of Precipitation, MM = Missing Value Source: NWS Daily Summary

Daily Weather History Graph

Daily Weather History Graph

Search for Another Location

Airport:

Trip Planner

Search our weather history database for the weather conditions in past years. The results will help you decide how hot, cold, wet, or windy it might be!

Date:

Astronomy

Mar. 26, 2013 Rise Set
Actual Time 6:42 AM CDT 7:03 PM CDT
Civil Twilight 6:16 AM CDT 7:29 PM CDT
Nautical Twilight 5:47 AM CDT 7:58 PM CDT
Astronomical Twilight 5:17 AM CDT 8:28 PM CDT
Moon 6:39 PM CDT (3/26) 5:57 AM CDT (3/26)
Length of Visible Light 13h 12m
Length of Day
12h 21m
Waxing Gibbous, 99% of the Moon is Illuminated
Mar 26
Waxing Gibbous
Mar 27
Full
Apr 2
Last Quarter
Apr 10
New
Apr 18
First Quarter

Hourly Weather History & Observations

Time (CDT) Temp. Windchill Dew Point Humidity Pressure Visibility Wind Dir Wind Speed Gust Speed Precip Events Conditions
12:53 AM 34.0 °F 26.0 °F 26.1 °F 73% 30.17 in 10.0 mi WNW 10.4 mph - N/A   Overcast
1:53 AM 33.8 °F 26.4 °F 26.6 °F 75% 30.16 in 10.0 mi WNW 9.2 mph - N/A   Mostly Cloudy
2:53 AM 34.0 °F 26.0 °F 26.1 °F 73% 30.16 in 10.0 mi WNW 10.4 mph - N/A   Overcast
3:42 AM 33.8 °F 25.8 °F 26.6 °F 75% 30.15 in 10.0 mi NW 10.4 mph - N/A   Overcast
3:53 AM 33.1 °F 24.9 °F 25.0 °F 72% 30.16 in 10.0 mi NW 10.4 mph - N/A   Overcast
4:11 AM 33.8 °F 26.4 °F 24.8 °F 70% 30.15 in 10.0 mi NW 9.2 mph - N/A   Mostly Cloudy
4:53 AM 32.0 °F 24.8 °F 26.1 °F 79% 30.17 in 10.0 mi NW 8.1 mph - N/A   Mostly Cloudy
5:20 AM 32.0 °F 24.2 °F 26.6 °F 80% 30.16 in 10.0 mi NW 9.2 mph - N/A   Mostly Cloudy
5:53 AM 32.0 °F 22.5 °F 26.1 °F 79% 30.19 in 10.0 mi NW 12.7 mph 17.3 mph N/A   Mostly Cloudy
6:53 AM 32.0 °F 21.2 °F 25.0 °F 75% 30.21 in 10.0 mi NW 16.1 mph - N/A   Mostly Cloudy
7:53 AM 33.1 °F 26.1 °F 26.1 °F 75% 30.24 in 10.0 mi NW 8.1 mph - N/A   Overcast
8:53 AM 34.0 °F 26.0 °F 27.0 °F 75% 30.26 in 10.0 mi NW 10.4 mph - N/A   Mostly Cloudy
9:28 AM 35.6 °F 28.0 °F 26.6 °F 70% 30.25 in 10.0 mi NW 10.4 mph - N/A   Mostly Cloudy
9:53 AM 37.0 °F 28.1 °F 27.0 °F 67% 30.27 in 10.0 mi NW 15.0 mph 19.6 mph N/A   Mostly Cloudy
10:53 AM 37.0 °F 29.8 °F 27.0 °F 67% 30.29 in 10.0 mi WNW 10.4 mph - N/A   Overcast
11:53 AM 37.9 °F 30.0 °F 27.0 °F 65% 30.30 in 10.0 mi NW 12.7 mph - N/A   Overcast
12:53 PM 39.9 °F 32.5 °F 28.0 °F 63% 30.31 in 9.0 mi NW 12.7 mph - 0.00 in   Unknown
1:53 PM 39.0 °F 31.8 °F 28.0 °F 65% 30.31 in 10.0 mi NW 11.5 mph - 0.00 in   Overcast
2:53 PM 43.0 °F 36.4 °F 28.0 °F 56% 30.30 in 10.0 mi NW 12.7 mph 18.4 mph N/A   Overcast
3:53 PM 42.1 °F 34.5 °F 28.0 °F 58% 30.30 in 10.0 mi NW 15.0 mph 19.6 mph 0.00 in   Overcast
4:53 PM 41.0 °F 34.3 °F 27.0 °F 57% 30.31 in 10.0 mi NNW 11.5 mph - N/A   Overcast
5:53 PM 39.9 °F 32.9 °F 27.0 °F 60% 30.32 in 10.0 mi NW 11.5 mph - N/A   Overcast
6:53 PM 39.9 °F 35.1 °F 27.0 °F 60% 30.33 in 10.0 mi NW 6.9 mph - N/A   Mostly Cloudy
7:53 PM 39.0 °F 36.8 °F 28.0 °F 65% 30.34 in 10.0 mi NW 3.5 mph - N/A   Mostly Cloudy
8:53 PM 37.9 °F - 30.0 °F 73% 30.35 in 10.0 mi Calm Calm - N/A   Mostly Cloudy
9:53 PM 37.9 °F - 28.9 °F 70% 30.37 in 10.0 mi Calm Calm - N/A   Overcast
10:53 PM 37.9 °F - 28.9 °F 70% 30.37 in 10.0 mi Calm Calm - N/A   Overcast
11:53 PM 37.0 °F - 28.0 °F 70% 30.37 in 10.0 mi Calm Calm - N/A   Overcast